Find Starlink 38018

NORAD ID: 100421 Int'l Des: 2026-192 Owner: SPXS Country: US Constellation: starlink operational

現在のビュー

3D地球を読み込み中...

About Starlink 38018

Starlink 38018 (NORAD 100421) is a starlink constellation satellite launched Aug 21, 2026 by SPXS of US. with a mass of 575.00 kg.

次回通過

Passes for default location (London). Set your location on the main map for personalized predictions.

高度履歴

Loading altitude history...

軌道要素

1 A0421U 26192T 26251.31316169 .00366168 00000-0 18752-2 0 9998
2 A0421 53.1594 5.5230 0001455 174.1018 186.0022 15.79746123 4006
Epoch: Sep 8, 2026 • Age: 11 hours

現在のステータス

高度 336.7 km
遠地点 / 近地点 N/A
速度 7.71 km/s
衛星直下点 53.18°N, 167.03°W
打ち上げ日 Aug 21, 2026
運用期間 18 days
タイプ internet

技術仕様

分類 Payload
質量 575.00 kg
乾燥質量 530.00 kg
総質量 575.00 kg
長さ 0.30 m
直径 4.10 m
スパン 29.00 m
形状 Box + pan
製造者 SPXS
バスタイプ Starlink V2MO
フェーズステータス In Orbit
所有者/国 SPXS/US

Most Searched